Waarnemingen

Advertentie
Mijn weer
Exeter Airport No. 2, Groot Brittannië (3844): temperatuur & dauwpunt: 19.02.2018 05:00:00 - 25.02.2018 05:00:00 (GMT)Exeter Airport No. 2, Groot Brittannië (3844): windsnelheid & windstoten: 19.02.2018 05:00:00 - 25.02.2018 05:00:00 (GMT)Exeter Airport No. 2, Groot Brittannië (3844): windrichting: 19.02.2018 05:00:00 - 25.02.2018 05:00:00 (GMT)Exeter Airport No. 2, Groot Brittannië (3844): luchtdruk: 19.02.2018 05:00:00 - 25.02.2018 05:00:00 (GMT)Exeter Airport No. 2, Groot Brittannië (3844): zicht: 19.02.2018 05:00:00 - 25.02.2018 05:00:00 (GMT)Exeter Airport No. 2, Groot Brittannië (3844): Zonneschijnduur: 19.02.2018 05:00:00 - 25.02.2018 05:00:00 (GMT)Exeter Airport No. 2, Groot Brittannië (3844): neerslag: 19.02.2018 05:00:00 - 25.02.2018 05:00:00 (GMT)
Datum & Tijd tt [°C] td [°C] ff [km/u] ff [kn] fx [km/u] fx [kn] dd ppp [hPa] vv [km] sd [min] rr [mm]
25.02.2018 05:00:00 -1,5 -3,4 8 4 - - NO 1023,8 10 0 0,0
25.02.2018 04:00:00 -0,9 -3,3 13 7 - - ONO 1023,4 10 0 0,0
25.02.2018 03:00:00 -0,7 -3,5 9 5 - - NO 1023,2 11 0 0,0
25.02.2018 02:00:00 0,1 -3,4 9 5 - - NNO 1022,9 12 0 0,0
25.02.2018 01:00:00 -0,1 -3,6 11 6 - - NNO 1022,4 12 0 0,0
25.02.2018 00:00:00 0,3 -3,8 9 5 - - ONO 1022,2 13 - 0,0
24.02.2018 23:00:00 0,9 -4,5 15 8 - - ONO 1022,1 14 0 0,0
24.02.2018 22:00:00 0,8 -4,6 16 9 - - O 1021,7 14 0 0,0
24.02.2018 21:00:00 1,3 -4,7 21 11 - - ONO 1021,4 15 0 0,0
24.02.2018 20:00:00 1,0 -3,7 11 6 - - ONO 1020,8 12 0 0,0
24.02.2018 19:00:00 1,4 -2,6 11 6 - - ONO 1020,2 10 0 0,0
24.02.2018 18:00:00 2,8 -1,9 11 6 - - NO 1019,4 11 24 0,0
24.02.2018 17:00:00 4,9 -1,1 15 8 - - NO 1019,2 14 60 0,0
24.02.2018 16:00:00 5,6 -0,7 18 10 - - ONO 1019,1 15 60 0,0
24.02.2018 15:00:00 5,6 -0,6 18 10 - - ONO 1019,3 16 60 0,0
24.02.2018 14:00:00 5,0 -1,3 18 10 - - ONO 1019,5 16 60 0,0
24.02.2018 13:00:00 4,6 -2,2 16 9 - - ONO 1019,7 17 60 0,0
24.02.2018 12:00:00 3,9 -2,9 18 10 - - ONO 1020,0 18 60 0,0
24.02.2018 11:00:00 2,9 -3,7 16 9 - - ONO 1019,9 18 12 0,0
24.02.2018 10:00:00 2,0 -2,8 15 8 - - NO 1019,9 13 24 0,0
24.02.2018 09:00:00 0,4 -3,3 9 5 - - NO 1019,9 11 60 0,0
24.02.2018 08:00:00 -1,4 -3,9 15 8 - - N 1019,4 8 12 0,0
24.02.2018 07:00:00 -1,2 -4,0 13 7 - - ONO 1018,6 8 0 0,0
24.02.2018 06:00:00 -0,2 -3,3 15 8 - - ONO 1018,0 9 0 0,0
24.02.2018 05:00:00 0,3 -2,9 16 9 - - ONO 1017,6 8 0 0,0
24.02.2018 04:00:00 0,3 -2,6 18 10 - - ONO 1017,3 7 0 0,0
24.02.2018 03:00:00 1,0 -2,1 16 9 - - ONO 1017,6 7 0 0,0
24.02.2018 02:00:00 1,1 -2,3 18 10 - - ONO 1017,7 7 0 0,0
24.02.2018 01:00:00 1,0 -2,4 11 6 - - NO 1017,7 8 0 0,0
24.02.2018 00:00:00 1,0 -2,8 9 5 - - NO 1017,7 9 - 0,0
23.02.2018 23:00:00 1,4 -2,7 15 8 - - ONO 1017,8 12 0 0,0
23.02.2018 22:00:00 1,2 -2,6 11 6 - - NO 1017,8 12 0 0,0
23.02.2018 21:00:00 0,5 -3,0 9 5 - - ONO 1017,6 13 0 0,0
23.02.2018 20:00:00 0,9 -2,8 9 5 - - NNO 1017,2 12 0 0,0
23.02.2018 19:00:00 1,0 -3,2 5 3 - - NO 1017,1 13 0 0,0
23.02.2018 18:00:00 1,5 -3,3 9 5 - - O 1017,0 14 18 0,0
23.02.2018 17:00:00 3,9 -1,8 13 7 - - OZO 1017,0 18 60 0,0
23.02.2018 16:00:00 4,4 -1,9 21 11 - - OZO 1017,3 20 60 0,0
23.02.2018 15:00:00 4,6 -1,8 24 13 - - OZO 1018,2 22 54 0,0
23.02.2018 14:00:00 4,6 -2,0 29 16 - - O 1018,7 23 48 0,0
23.02.2018 13:00:00 3,4 -1,6 18 10 - - O 1019,3 16 0 0,0
23.02.2018 12:00:00 2,9 -2,1 24 13 - - OZO 1020,1 14 6 0,0
23.02.2018 11:00:00 2,5 -2,3 15 8 - - O 1020,2 13 0 0,0
23.02.2018 10:00:00 2,2 -1,5 15 8 - - O 1020,4 10 6 0,0
23.02.2018 09:00:00 0,6 -2,2 15 8 - - ONO 1020,4 8 42 0,0
23.02.2018 08:00:00 -0,8 -2,7 11 6 - - NO 1020,3 7 0 0,0
23.02.2018 07:00:00 -0,6 -2,7 11 6 - - NO 1020,2 6 0 0,0
23.02.2018 06:00:00 -0,3 -2,5 9 5 - - ONO 1020,1 7 0 0,0
23.02.2018 05:00:00 -0,7 -2,8 13 7 - - ONO 1020,0 8 0 0,0
23.02.2018 04:00:00 -0,9 -3,1 13 7 - - ONO 1020,2 8 0 0,0
23.02.2018 03:00:00 -0,4 -2,9 15 8 - - ONO 1020,6 9 0 0,0
23.02.2018 02:00:00 -1,5 -3,7 11 6 - - ONO 1021,1 10 0 0,0
23.02.2018 01:00:00 -0,9 -3,7 11 6 - - N 1021,4 10 0 0,0
23.02.2018 00:00:00 -1,0 -3,0 5 3 - - NNO 1021,6 8 - 0,0
22.02.2018 23:00:00 -0,7 -2,8 5 3 - - NNO 1021,6 5 0 0,0
22.02.2018 22:00:00 -0,3 -2,0 5 3 - - NNO 1021,7 5 0 0,0
22.02.2018 21:00:00 -2,0 -3,2 4 2 - - NO 1021,9 4,8 0 0,0
22.02.2018 20:00:00 -1,2 -2,7 4 2 - - NO 1022,0 6 0 0,0
22.02.2018 19:00:00 -0,4 -2,4 5 3 - - O 1021,9 6 0 0,0
22.02.2018 18:00:00 1,8 -2,2 4 2 - - NO 1021,7 9 0 0,0
22.02.2018 17:00:00 3,7 -1,9 9 5 - - ONO 1021,6 12 30 0,0
22.02.2018 16:00:00 4,5 -1,1 9 5 - - O 1021,6 15 0 0,0
22.02.2018 15:00:00 4,9 -1,5 15 8 - - ONO 1021,8 16 0 0,0
22.02.2018 14:00:00 5,3 0,0 16 9 - - ONO 1022,3 16 0 0,0
22.02.2018 13:00:00 5,3 1,2 11 6 - - NO 1022,7 13 36 0,0
22.02.2018 12:00:00 5,2 1,6 18 10 - - ONO 1023,0 12 0 0,0
22.02.2018 11:00:00 4,2 1,8 16 9 - - O 1023,4 10 0 0,0
22.02.2018 10:00:00 2,9 1,6 5 3 - - NO 1023,6 9 0 0,0
22.02.2018 09:00:00 0,9 0,1 5 3 - - NNO 1023,5 - 18 0,0
22.02.2018 08:00:00 -0,4 -1,1 2 1 - - WNW 1023,4 - 0 0,0
22.02.2018 07:00:00 0,3 -0,5 5 3 - - NO 1023,3 - 0 0,0
22.02.2018 06:00:00 0,5 -0,3 13 7 - - ONO 1023,2 - 0 0,0
22.02.2018 05:00:00 0,9 0,4 8 4 - - N 1023,6 - 0 0,0
22.02.2018 04:00:00 -1,6 -1,7 5 3 - - O 1023,6 - 0 0,0
22.02.2018 03:00:00 -2,0 -2,3 2 1 - - OZO 1024,1 - 0 0,0
22.02.2018 02:00:00 -1,7 -2,0 4 2 - - ZO 1024,4 - 0 0,0
22.02.2018 01:00:00 -1,5 -2,4 5 3 - - N 1024,8 - 0 0,0
22.02.2018 00:00:00 0,6 0,1 2 1 - - ONO 1025,1 - - 0,0
21.02.2018 23:00:00 0,4 -0,4 0 0 - - N 1025,2 - 0 0,0
21.02.2018 22:00:00 0,2 -0,5 2 1 - - O 1025,7 - 0 0,0
21.02.2018 21:00:00 0,1 -1,4 4 2 - - ONO 1025,9 - 0 0,0
21.02.2018 20:00:00 2,2 -1,3 2 1 - - N 1025,8 - 0 0,0
21.02.2018 19:00:00 3,0 -0,5 4 2 - - NO 1025,8 - 0 0,0
21.02.2018 18:00:00 4,7 0,2 9 5 - - NO 1025,6 - 0 0,0
21.02.2018 17:00:00 6,8 0,9 11 6 - - ONO 1025,4 - 54 0,0
21.02.2018 16:00:00 7,8 0,5 13 7 - - O 1025,4 - 60 0,0
21.02.2018 15:00:00 8,0 0,7 9 5 - - ONO 1025,8 - 54 0,0
21.02.2018 14:00:00 8,2 1,0 15 8 - - ONO 1026,4 - 60 0,0
21.02.2018 13:00:00 7,9 1,3 11 6 - - ONO 1026,9 - 42 0,0
21.02.2018 12:00:00 6,7 1,9 8 4 - - NO 1027,3 - 24 0,0
21.02.2018 11:00:00 6,3 2,5 9 5 - - ONO 1027,7 - 6 0,0
21.02.2018 10:00:00 6,3 2,8 13 7 - - ONO 1027,7 - 12 0,0
21.02.2018 09:00:00 5,3 2,6 16 9 - - ONO 1027,3 - 18 0,0
21.02.2018 08:00:00 5,0 3,5 4 2 - - NNO 1027,1 - 0 0,0
21.02.2018 07:00:00 5,1 3,3 5 3 - - NO 1026,8 - 0 0,0
21.02.2018 06:00:00 4,7 3,0 2 1 - - NNO 1026,9 - 0 0,0
21.02.2018 05:00:00 5,0 2,5 4 2 - - N 1026,5 - 0 0,0
21.02.2018 04:00:00 4,7 2,0 11 6 - - NNW 1026,4 - 0 0,0
21.02.2018 03:00:00 3,7 1,8 5 3 - - W 1026,5 - 0 0,0
21.02.2018 02:00:00 3,5 0,4 8 4 - - NW 1026,4 - 0 0,0
21.02.2018 01:00:00 3,8 0,9 8 4 - - NW 1026,6 - 0 0,0
21.02.2018 00:00:00 4,3 1,6 11 6 - - NNW 1026,3 - - 0,0
20.02.2018 23:00:00 5,2 2,3 11 6 - - NW 1026,3 - 0 0,0
20.02.2018 22:00:00 5,2 2,4 11 6 - - N 1026,5 - 0 0,0
20.02.2018 21:00:00 5,9 3,1 11 6 - - N 1026,3 - 0 0,0
20.02.2018 20:00:00 6,3 3,2 13 7 - - NNW 1026,1 - 0 0,0
20.02.2018 19:00:00 7,0 3,0 15 8 - - NNW 1025,5 - 0 0,0
20.02.2018 18:00:00 7,7 2,7 11 6 - - NNW 1024,9 - 24 0,0
20.02.2018 17:00:00 9,5 1,3 18 10 - - N 1024,4 - 60 0,0
20.02.2018 16:00:00 10,2 2,2 18 10 - - NNW 1024,0 - 54 0,0
20.02.2018 15:00:00 10,5 1,1 22 12 - - N 1023,8 - 60 0,0
20.02.2018 14:00:00 10,2 2,1 21 11 - - N 1024,2 - 60 0,0
20.02.2018 13:00:00 10,0 2,3 22 12 46 25 N 1024,4 - 60 0,0
20.02.2018 12:00:00 9,6 2,8 26 14 46 25 N 1024,6 - 48 0,0
20.02.2018 11:00:00 9,1 3,4 21 11 - - NNW 1024,5 - 30 0,0
20.02.2018 10:00:00 8,5 3,8 21 11 - - NNW 1024,5 - 54 0,0
20.02.2018 09:00:00 7,1 4,1 15 8 - - NW 1024,1 - 42 0,0
20.02.2018 08:00:00 6,5 3,7 13 7 - - NW 1023,1 - 0 0,0
20.02.2018 07:00:00 6,5 4,0 15 8 - - WNW 1022,0 - 0 0,0
20.02.2018 06:00:00 7,1 5,4 15 8 - - WNW 1021,7 - 0 0,0
20.02.2018 05:00:00 8,4 6,9 11 6 - - WNW 1021,1 - 0 0,0
20.02.2018 04:00:00 8,4 8,2 8 4 - - NNW 1020,8 - 0 0,0
20.02.2018 03:00:00 7,0 6,8 4 2 - - ONO 1020,6 - 0 0,0
20.02.2018 02:00:00 6,3 6,1 2 1 - - N 1020,8 - 0 0,0
20.02.2018 01:00:00 7,0 6,6 5 3 - - NW 1020,7 - 0 0,0
20.02.2018 00:00:00 7,1 6,7 8 4 - - WNW 1020,5 - - 0,0
19.02.2018 23:00:00 7,6 7,1 11 6 - - NW 1020,1 - 0 0,0
19.02.2018 22:00:00 8,3 7,8 15 8 - - WNW 1019,9 - 0 0,0
19.02.2018 21:00:00 8,5 7,9 15 8 - - WNW 1019,7 - 0 0,0
19.02.2018 20:00:00 8,7 8,0 9 5 - - WNW 1019,6 - 0 0,0
19.02.2018 19:00:00 9,0 8,2 11 6 - - WNW 1019,5 - 0 0,0
19.02.2018 18:00:00 9,5 8,5 16 9 - - WNW 1019,5 - 0 0,0
19.02.2018 17:00:00 10,0 8,9 16 9 - - NW 1019,1 - 0 0,0
19.02.2018 16:00:00 10,3 9,5 18 10 - - WNW 1018,8 - 0 0,0
19.02.2018 15:00:00 10,5 9,5 18 10 - - WNW 1018,7 - 0 0,0
19.02.2018 14:00:00 10,6 9,5 21 11 - - WNW 1018,9 - 0 0,0
19.02.2018 13:00:00 10,9 9,6 15 8 - - WNW 1018,9 - 0 0,0
19.02.2018 12:00:00 10,8 9,8 13 7 - - WNW 1019,0 - 0 0,0
19.02.2018 11:00:00 10,3 9,6 11 6 - - WNW 1018,9 - 0 0,0
19.02.2018 10:00:00 10,4 10,3 15 8 - - WNW 1018,7 - 0 0,0
19.02.2018 09:00:00 9,7 9,7 5 3 - - NW 1018,7 - 0 0,0
19.02.2018 08:00:00 9,3 9,3 4 2 - - W 1018,7 - 0 0,0
19.02.2018 07:00:00 9,1 9,1 4 2 - - WNW 1018,6 - 0 0,0
19.02.2018 06:00:00 8,7 8,7 2 1 - - Z 1018,2 - 0 0,0
19.02.2018 05:00:00 8,2 8,2 2 1 - - Z 1018,1 - 0 0,0

tt = temperatuur
td = dauwpunt
ff = windsnelheid
fx = windstoten
dd = windrichting
ppp = luchtdruk
vv = zicht
sd = Zonneschijnduur
rr = neerslag

Weerstations in de omgeving